Terminal Aerodrome Forecast
Issued by NWS

Home | Current Version | Previous Version | Text Only | Print | Product List | Glossary On
Versions: 1 2 3 4 5 6 7 8 9 10 11 12 13 14 15 16 17 18 19 20 21 22 23 24 25 26 27 28 29 30 31 32 33 34 35 36 37 38 39 40 41 42 43 44 45 46 47 48
000
FTUS42 KGSP 130500
TAFHKY
TAF
KHKY 130520Z 1306/1406 21003KT P6SM FEW060
     FM130900 23003KT P6SM SCT040
     FM131300 22006G14KT P6SM SCT060
     FM140000 23005KT P6SM BKN060
     FM140300 25003KT P6SM SCT060=

USA.gov is the U.S. government's official web portal to all federal, state and local government web resources and services.